Terug naar catalogus

COSMOS 1723

ActiefMilitairLEO
NORAD 16456·PAYLOAD·🇷🇺 Russia

Gelanceerd Jan 9, 1986 vanaf Plesetsk Cosmodrome

Loading…

Volgende Passages (komende 24 uur)

TLE

VersSource: Space-Track

Epoch: Sep 14, 2026, 14:10 UTC

1 16456U 86002H   26257.59096410  .00000002  00000-0  11367-3 0  9997
2 16456  73.9902 312.5406 0053179 279.3039 249.8346 12.55806453864860

Volg COSMOS 1723 in realtime met AllMySat

Download on the App Store